Leadville, CO

12:57 PM MST on February 14, 2016 (GMT -0700)
Lake County

Weather History for KLXV - April, 2012

Change the Weather History Date:

Wednesday, April 25, 2012

  Actual Average Record
Temperature  
Mean Temperature 50 °F -  
Max Temperature 62 °F 46 °F 62 °F (2012)
Min Temperature 37 °F 21 °F 4 °F (1980)
Degree Days  
Heating Degree Days 15 31  
Month to date heating degree days 717 867  
Since 1 July heating degree days 9351 9850  
Cooling Degree Days 0 0  
Month to date cooling degree days 0 0  
Year to date cooling degree days 0 0  
Moisture  
Dew Point 16 °F    
Average Humidity 35    
Maximum Humidity 53    
Minimum Humidity 17    
Precipitation  
Precipitation 0.00 in 0.04 in 0.66 in (1985)
Month to date precipitation 0.56 0.90  
Year to date precipitation 2.96 3.16  
Snow  
Snow 0.00 in - - ()
Month to date snowfall 0.0  
Snow Depth 0.00 in    
Sea Level Pressure  
Sea Level Pressure 29.82 in    
Wind  
Wind Speed 8 mph (NNE)    
Max Wind Speed 20 mph    
Max Gust Speed 28 mph    
Visibility 10 miles    
Events      
T = Trace of Precipitation, MM = Missing Value Source: NWS Daily Summary

Daily Weather History Graph

Daily Weather History Graph

Search for Another Location

Airport or City:

Trip Planner

Search our weather history database for the weather conditions in past years. The results will help you decide how hot, cold, wet, or windy it might be!

Date:

Astronomy

Apr. 25, 2012 Rise Set
Actual Time 6:13 AM MDT 7:53 PM MDT
Civil Twilight 5:45 AM MDT 8:21 PM MDT
Nautical Twilight 5:10 AM MDT 8:56 PM MDT
Astronomical Twilight 4:34 AM MDT 9:32 PM MDT
Moon 9:02 AM MDT (4/25) No Moon Set
Length of Visible Light 14h 36m
Length of Day
13h 39m
Waxing Crescent, 17% of the Moon is Illuminated
Apr 25
Waxing Crescent
Apr 29
First Quarter
May 5
Full
May 12
Last Quarter
May 20
New

Hourly Weather History & Observations

Time (MDT) Temp. Windchill Dew Point Humidity Pressure Visibility Wind Dir Wind Speed Gust Speed Precip Events Conditions
12:53 AM 39.9 °F - 16.0 °F 38% 29.79 in 10.0 mi Calm Calm - N/A   Clear
1:53 AM 45.0 °F 43.5 °F 10.9 °F 25% 29.77 in 10.0 mi NNE 3.5 mph - N/A   Clear
2:53 AM 41.0 °F 37.1 °F 12.0 °F 31% 29.80 in 10.0 mi ENE 5.8 mph - N/A   Clear
3:53 AM 41.0 °F 35.2 °F 12.9 °F 32% 29.76 in 10.0 mi ENE 9.2 mph - N/A   Clear
4:53 AM 39.0 °F 33.4 °F 12.9 °F 34% 29.78 in 10.0 mi East 8.1 mph - N/A   Clear
5:53 AM 39.0 °F 35.7 °F 10.9 °F 32% 29.78 in 10.0 mi East 4.6 mph - N/A   Clear
6:53 AM 37.0 °F 31.0 °F 14.0 °F 39% 29.84 in 10.0 mi East 8.1 mph - N/A   Clear
7:53 AM 46.0 °F 43.9 °F 14.0 °F 28% 29.83 in 10.0 mi NNW 4.6 mph - N/A   Clear
8:53 AM 51.1 °F - 12.0 °F 21% 29.86 in 10.0 mi North 9.2 mph - N/A   Clear
9:53 AM 54.0 °F - 12.0 °F 19% 29.83 in 10.0 mi NNW 10.4 mph 19.6 mph N/A   Clear
10:53 AM 55.9 °F - 14.0 °F 19% 29.87 in 10.0 mi NNW 17.3 mph 26.5 mph N/A   Clear
11:53 AM 57.0 °F - 15.1 °F 19% 29.86 in 10.0 mi NE 10.4 mph 23.0 mph N/A   Clear
12:53 PM 57.0 °F - 14.0 °F 18% 29.84 in 10.0 mi Variable 4.6 mph - N/A   Scattered Clouds
1:53 PM 59.0 °F - 16.0 °F 19% 29.80 in 10.0 mi Variable 5.8 mph - N/A   Clear
2:53 PM 60.1 °F - 17.1 °F 19% 29.80 in 10.0 mi NNE 10.4 mph 17.3 mph N/A   Partly Cloudy
3:53 PM 57.0 °F - 16.0 °F 20% 29.81 in 10.0 mi WNW 5.8 mph - N/A   Mostly Cloudy
4:53 PM 57.9 °F - 15.1 °F 19% 29.81 in 10.0 mi West 10.4 mph - N/A   Mostly Cloudy
5:53 PM 55.9 °F - 15.1 °F 20% 29.83 in 10.0 mi West 12.7 mph 18.4 mph N/A   Mostly Cloudy
6:53 PM 55.0 °F - 16.0 °F 22% 29.86 in 10.0 mi NW 10.4 mph - N/A   Overcast
7:53 PM 52.0 °F - 17.1 °F 25% 29.83 in 10.0 mi NNW 10.4 mph - N/A   Overcast
8:53 PM 48.0 °F - 21.0 °F 34% 29.83 in 10.0 mi Calm Calm - N/A   Scattered Clouds
9:53 PM 46.0 °F 41.9 °F 24.1 °F 42% 29.86 in 10.0 mi NNE 8.1 mph - N/A   Mostly Cloudy
10:53 PM 43.0 °F 39.5 °F 25.0 °F 49% 29.85 in 10.0 mi East 5.8 mph - N/A   Mostly Cloudy
11:53 PM 43.0 °F 40.3 °F 27.0 °F 53% 29.86 in 10.0 mi East 4.6 mph - N/A   Overcast